Location: Newark
(38.8667°N, 6.9667°W)
Time: 10:51:47
(UTC+00:00)

N. Korean satellite - Visible Passes

Search period start: 15 October 2019 00:00
Search period end: 25 October 2019 00:00
Orbit: 455 x 508 km, 97.2° (Epoch: 14 October)

Date Brightness Start Highest point End Pass type
(mag) Time Alt. Az. Time Alt. Az. Time Alt. Az.
15 Oct 10.1 05:25:37 10° ENE 05:27:36 14° E 05:29:35 10° SE visible
16 Oct 10.3 18:42:00 10° WSW 18:43:24 12° W 18:44:49 10° WNW visible
17 Oct 7.7 06:07:04 10° NNE 06:10:34 51° E 06:14:08 10° S visible
17 Oct 9.2 18:15:03 10° SSW 18:17:57 25° W 18:20:52 10° NW visible
18 Oct 9.4 05:42:15 10° NE 05:45:12 24° E 05:48:12 10° SSE visible
19 Oct 10.4 05:18:29 10° ENE 05:19:46 12° E 05:21:03 10° ESE visible
20 Oct 10.0 18:33:27 10° SW 18:35:32 15° W 18:37:37 10° NW visible
21 Oct 8.2 05:59:19 10° NNE 06:02:46 40° E 06:06:15 10° S visible
21 Oct 8.7 18:06:59 10° SSW 18:10:05 32° W 18:13:14 10° NNW visible
22 Oct 9.7 05:34:41 10° NE 05:37:22 19° E 05:40:05 10° SE visible
24 Oct 7.0 06:16:36 10° NNE 06:20:16 73° E 06:23:57 10° S visible
24 Oct 9.7 18:25:06 10° SW 18:27:36 19° W 18:30:09 10° NW visible
